Meteo Giornale » Osservazioni meteo Slovenia » Portoroz

ore: 07:30 - Osservazioni Meteo Portoroz
Lat. 45° 31' N Lon. 13° 34' E Alt. 95 metri s.l.m.

coperto Europe/Ljubljana

10 °C

Coperto

Temp. 24 Ore

5 °C

14 °C

Nord

1.8 Km/h

Dew point 8 °C

Umidità 87 %

Visibilità  10 Km

Il sole sorge alle ore 07:01

Il sole tramonta alle ore 17:38

Data e Ora Cielo e Fenomeni T °C DP °C Um. % Pres. hPa Vis. km Vento km/h
Oggi h: 07:30 coperto Coperto 10 8 87 1023 10 N 1.8
Oggi h: 07:00 coperto Coperto 10 8 87 1023 10 N 1.8
Oggi h: 06:30 coperto Coperto 10 8 87 1023 10 N 0
Oggi h: 06:00 coperto Coperto 10 7 81 1022 10 N 1.8
Oggi h: 05:30 coperto Coperto 11 7 76 1022 10 N 0
Oggi h: 05:00 coperto Coperto 11 7 76 1022 10 N 3.7
Oggi h: 04:30 coperto Coperto 11 7 76 1022 10 N 3.7
Oggi h: 04:00 coperto Coperto 11 7 76 1022 10 N 3.7
Oggi h: 03:30 coperto Coperto 11 7 76 1022 10 N 3.7
Oggi h: 03:00 coperto Coperto 11 7 76 1022 10 N 3.7
Oggi h: 02:30 coperto Coperto 11 7 76 1022 10 N 3.7
Oggi h: 02:00 molto_nuvoloso Molto Nuvoloso 10 7 81 1022 10 N 3.7
Oggi h: 01:30 molto_nuvoloso Molto Nuvoloso 10 7 81 1022 10 N 5.5
Oggi h: 00:30 molto_nuvoloso Molto Nuvoloso 10 8 87 1023 10 E/SE 9.3
Oggi h: 00:00 coperto Coperto 9 8 93 1023 10 N 3.7
Ieri h: 23:30 molto_nuvoloso Molto Nuvoloso 9 8 93 1023 10 N 3.7
Ieri h: 23:00 coperto Coperto 9 8 93 1023 9 N 3.7
Ieri h: 22:30 coperto Coperto 9 8 93 1023 8 N 3.7
Ieri h: 21:30 molto_nuvoloso Molto Nuvoloso 10 8 87 1023 10 N 0
Ieri h: 21:00 molto_nuvoloso Molto Nuvoloso 10 9 93 1023 10 N 1.8
Ieri h: 20:30 molto_nuvoloso Molto Nuvoloso 10 9 93 1023 10 N 0
Ieri h: 20:00 molto_nuvoloso Molto Nuvoloso 10 9 93 1023 10 N 1.8
Ieri h: 19:30 molto_nuvoloso Molto Nuvoloso 10 9 93 1023 10 N 5.5
Ieri h: 19:00 molto_nuvoloso Molto Nuvoloso 10 9 93 1023 10 N 3.7
Ieri h: 18:30 molto_nuvoloso Molto Nuvoloso 10 9 93 1023 10 N 5.5
Ieri h: 18:00 molto_nuvoloso Molto Nuvoloso 11 9 87 1023 10 N 5.5
Ieri h: 17:30 molto_nuvoloso Molto Nuvoloso 12 10 87 1023 10 S/SO 9.3
Ieri h: 17:00 molto_nuvoloso Molto Nuvoloso 12 9 81 1023 10 SO 11.1
Ieri h: 16:30 molto_nuvoloso Molto Nuvoloso 12 9 81 1023 10 SO 14.8
Ieri h: 16:00 molto_nuvoloso Molto Nuvoloso 13 8 71 1023 10 O/SO 20.3
Ieri h: 15:30 nuvoloso Nuvoloso 13 9 76 1023 10 O/SO 16.7
Ieri h: 15:00 nuvoloso Nuvoloso 14 9 71 1023 10 O/SO 11.1
Ieri h: 14:30 molto_nuvoloso Molto Nuvoloso 13 8 71 1024 10 O 7.4
Ieri h: 13:30 molto_nuvoloso Molto Nuvoloso 12 9 81 1025 10 NO 7.4
Ieri h: 13:00 molto_nuvoloso Molto Nuvoloso 12 9 81 1025 10 N/NO 7.4
Ieri h: 12:30 molto_nuvoloso Molto Nuvoloso 12 9 81 1026 10 N 3.7
Ieri h: 12:00 molto_nuvoloso Molto Nuvoloso 11 9 87 1026 10 N 1.8
Ieri h: 11:30 molto_nuvoloso Molto Nuvoloso 10 9 93 1026 10 N 3.7
Ieri h: 11:00 coperto Coperto 10 8 87 1027 10 N 1.8
Ieri h: 10:30 coperto Coperto 9 7 87 1027 10 N 1.8
Ieri h: 10:00 coperto Coperto 8 6 87 1027 10 N 1.8
Ieri h: 09:30 coperto Coperto 7 6 93 1027 10 N 0
Ieri h: 09:00 coperto Coperto 7 6 93 1027 10 N 1.8
Ieri h: 08:30 coperto Coperto 6 5 93 1027 10 N 3.7
Ieri h: 08:00 coperto Coperto 6 5 93 1027 10 N 5.5
Ieri h: 07:30 coperto Coperto 6 5 93 1026 10 N 3.7
Ieri h: 07:00 coperto Coperto 5 4 93 1027 10 N 3.7